Regional Weather Roundup
Issued by NWS

Home | Current Version | Previous Version | Graphics & Text | Print | Product List | Glossary On
Versions: 1 2 3 4 5 6 7 8 9 10 11 12 13 14 15 16 17 18 19 20 21 22 23 24 25 26 27 28 29 30 31 32 33 34 35 36 37 38 39 40 41 42 43 44 45 46 47 48 49 50
000
ASUS43 KBIS 231102
RWRND

NORTH DAKOTA REGIONAL WEATHER ROUNDUP
NATIONAL WEATHER SERVICE BISMARCK ND
500 AM CST MON JAN 23 2017

NOTE: "FAIR" INDICATES FEW OR NO CLOUDS BELOW 12,000 FEET WITH NO
SIGNIFICANT WEATHER AND/OR OBSTRUCTIONS TO VISIBILITY.


NDZ001>003-009>011-017-231200-
NORTHWEST NORTH DAKOTA

CITY           SKY/WX    TMP DP  RH WIND       PRES   REMARKS
WILLISTON      CLOUDY    27  24  89 CALM      29.77S
MINOT          CLOUDY    28  22  78 NW9       29.76F WCI  19
MINOT AFB      CLOUDY    26  22  83 NW10      29.75S WCI  16
$$

NDZ018>021-031>035-040>046-231200-
SOUTHWEST NORTH DAKOTA

CITY           SKY/WX    TMP DP  RH WIND       PRES   REMARKS
BISMARCK       CLOUDY    30  23  75 W5        29.81S
DICKINSON      CLOUDY    24  19  81 CALM      29.73F
GARRISON         N/A     27  22  81 NW7       29.76F WCI  19
HETTINGER ARPT FOG       23  22  96 CALM      29.75F VSB 1/2
$$

NDZ004>008-012>016-024-026-027-054-231200-
NORTHEAST NORTH DAKOTA

CITY           SKY/WX    TMP DP  RH WIND       PRES   REMARKS
GRAND FORKS    CLOUDY    33  27  78 W8        29.78R
GRND FRKS AFB  CLOUDY    32  27  82 W10       29.77S
DEVILS LAKE    CLOUDY    29  26  89 W14       29.77S WCI  18
$$

NDZ022-023-025-028>030-036>039-047>053-231200-
SOUTHEAST NORTH DAKOTA

CITY           SKY/WX    TMP DP  RH WIND       PRES   REMARKS
FARGO          CLOUDY    35  27  72 W9        29.81R
JAMESTOWN      CLOUDY    30  25  81 NW9       29.77F
$$





USA.gov is the U.S. government's official web portal to all federal, state and local government web resources and services.